Simultaneous Nadir Overpasses (SNOs) Predictions

Prediction of SNOs between AQUA and NOAA-19 Satellite Orbit:

Table of predicted SNOs for the next 14.0 days since TLE Epoch: 2/1/2019
Index Date (AQUA) Time (AQUA) Lat,Lon (AQUA) SZA (AQUA ) Date (NOAA-19) Time (NOAA-19) Lat,Lon (NOAA-19) SZA (NOAA-19 ) Distance(km) Time Diff (sec)
1 02/02/2019 05:27:50 -80.56,-117.83 80.54 02/02/2019 05:27:50 -80.57,-117.83 80.54 0.96 0
2 02/04/2019 11:01:35 80.56, -21.28 98.82 02/04/2019 11:01:15 80.56, -21.35 98.83 1.34 20
3 02/06/2019 16:35:19 -80.55, 75.43 81.88 02/06/2019 16:34:49 -80.56, 75.29 81.85 2.60 30
4 02/06/2019 17:24:46 80.56,-117.04 98.13 02/06/2019 17:25:43 80.57,-116.98 98.12 2.14 57
5 02/08/2019 22:09:04 80.56, 171.86 97.45 02/08/2019 22:08:13 80.55, 171.84 97.47 1.53 51
6 02/08/2019 22:58:31 -80.57, -20.64 82.54 02/08/2019 22:59:18 -80.56, -20.61 82.57 1.48 47
7 02/11/2019 03:42:48 -80.54, -91.39 83.30 02/11/2019 03:41:47 -80.55, -91.38 83.27 0.85 61
8 02/11/2019 04:32:15 80.56, 76.06 96.73 02/11/2019 04:32:41 80.56, 76.18 96.71 2.24 26
9 02/13/2019 10:05:59 -80.54, 172.82 84.05 02/13/2019 10:06:16 -80.55, 172.65 84.03 3.40 17




NCC Satellite Simultaneous Nadir Overpasses (SNOs) Prediction Service
